User: anonymous
Location: Vancouver
(49.2500°N, 123.1330°W)
Time: 04:51:40
(UTC-07:00)
Language:

SO-67 - Orbit

View from above orbital plane
View from above orbital plane
View from above satellite
View from above satellite

Ground track
Ground track

The orbit data is extracted from the following two-line orbital elements,

1 35870U 09049F   14213.15148845  .00006940  00000-0  21624-3 0  3858
2 35870 097.1599 232.9981 0000829 060.6954 339.6712 15.33563762270942
Epoch (UTC): 01 August 2014 03:38:08
Eccentricity: 0.0000829
inclination: 97.1599°
perigee height: 464 km
apogee height: 466 km
right ascension of ascending node: 232.9981°
argument of perigee: 60.6954°
revolutions per day: 15.33563762
mean anomaly at epoch: 339.6712°
orbit number at epoch: 27094

The dashed part of the orbit path shows where the satellite is in the earth's shadow,  

DLR